| time (UTC) | temp F | wind direction | speed knots | gust knots | rain 1hr in | rain 24hr in | rain mn in | humidity % | barometer mb |
| 20260505183014 | 81 | 240 | 3.5 | 7.8 | 0.00 | 0.00 | 0.00 | 52 | 1009.0 |
| 20260505181602 | 80 | 207 | 3.5 | 9.6 | 0.00 | 0.00 | 0.00 | 52 | 1009.1 |
| 20260505180115 | 80 | 194 | 3.5 | 7.8 | 0.00 | 0.00 | 0.00 | 52 | 1009.6 |
| 20260505174513 | 80 | 223 | 4.3 | 7.0 | 0.00 | 0.00 | 0.00 | 55 | 1009.7 |
| 20260505173058 | 80 | 279 | 2.6 | 6.1 | 0.00 | 0.00 | 0.00 | 55 | 1009.7 |
| 20260505171522 | 79 | 257 | 1.7 | 7.8 | 0.00 | 0.00 | 0.00 | 56 | 1009.8 |
| 20260505170026 | 79 | 192 | 2.6 | 7.8 | 0.00 | 0.00 | 0.00 | 56 | 1010.1 |
| 20260505164611 | 78 | 165 | 3.5 | 7.0 | 0.00 | 0.00 | 0.00 | 55 | 1010.3 |
| 20260505163024 | 77 | 189 | 3.5 | 7.0 | 0.00 | 0.00 | 0.00 | 58 | 1010.7 |
| 20260505161506 | 77 | 211 | 0.0 | 7.0 | 0.00 | 0.00 | 0.00 | 58 | 1010.7 |
| 20260505153110 | 75 | 277 | 2.6 | 6.1 | 0.00 | 0.00 | 0.00 | 58 | 1011.0 |
| 20260505151501 | 74 | 275 | 0.9 | 5.2 | 0.00 | 0.00 | 0.00 | 57 | 1011.1 |
| 20260505124601 | 62 | 262 | 0.0 | 0.0 | 0.00 | 0.00 | 0.00 | 30 | 1012.2 |
| 20260505121512 | 56 | 259 | 0.0 | 0.0 | 0.00 | 0.00 | 0.00 | 18 | 1012.0 |
| 20260505120032 | 56 | 259 | 0.0 | 0.0 | 0.00 | 0.00 | 0.00 | 18 | 1011.9 |
| 20260505114503 | 57 | 329 | 0.0 | 0.0 | 0.00 | 0.00 | 0.00 | 18 | 1011.9 |
| 20260505113025 | 57 | 329 | 0.0 | 0.0 | 0.00 | 0.00 | 0.00 | 18 | 1011.8 |
| 20260505111503 | 56 | 329 | 0.0 | 0.0 | 0.00 | 0.00 | 0.00 | 18 | 1011.7 |
| 20260505110107 | 56 | 329 | 0.0 | 0.0 | 0.00 | 0.00 | 0.00 | 18 | 1011.7 |
| 20260505101532 | 55 | 329 | 0.0 | 0.0 | 0.00 | 0.00 | 0.00 | 18 | 1011.4 |
| 20260505100055 | 55 | 329 | 0.0 | 0.0 | 0.00 | 0.00 | 0.00 | 18 | 1011.3 |
| 20260505094559 | 55 | 329 | 0.0 | 0.0 | 0.00 | 0.00 | 0.00 | 18 | 1011.3 |
| 20260505093104 | 55 | 329 | 0.0 | 0.0 | 0.00 | 0.00 | 0.00 | 18 | 1011.4 |
| 20260505091615 | 54 | 332 | 0.0 | 3.5 | 0.00 | 0.00 | 0.00 | 18 | 1011.0 |
| 20260505090020 | 54 | 244 | 0.0 | 0.0 | 0.00 | 0.00 | 0.00 | 18 | 1011.5 |
| 20260505084506 | 58 | 244 | 0.0 | 0.0 | 0.00 | 0.00 | 0.00 | 59 | 1011.1 |
| 20260505083024 | 59 | 244 | 0.0 | 0.0 | 0.00 | 0.00 | 0.00 | 60 | 1011.3 |
| 20260505081602 | 59 | 244 | 0.0 | 0.9 | 0.00 | 0.00 | 0.00 | 62 | 1010.7 |
| 20260505080125 | 59 | 244 | 0.0 | 1.7 | 0.00 | 0.00 | 0.00 | 63 | 1010.7 |
| 20260505074510 | 59 | 244 | 0.0 | 1.7 | 0.00 | 0.00 | 0.00 | 64 | 1010.7 |
| 20260505073013 | 59 | 244 | 0.0 | 0.9 | 0.00 | 0.00 | 0.00 | 67 | 1010.8 |
| 20260505071607 | 59 | 244 | 0.0 | 1.7 | 0.00 | 0.00 | 0.00 | 69 | 1010.8 |
| 20260505070114 | 59 | 244 | 0.0 | 0.0 | 0.00 | 0.00 | 0.00 | 71 | 1010.9 |
| 20260505064601 | 59 | 244 | 0.0 | 0.9 | 0.00 | 0.00 | 0.00 | 72 | 1010.8 |
| 20260505063140 | 59 | 244 | 0.0 | 0.9 | 0.00 | 0.00 | 0.00 | 72 | 1010.9 |
| 20260505061513 | 59 | 244 | 0.0 | 1.7 | 0.00 | 0.00 | 0.00 | 72 | 1011.0 |
| 20260505060026 | 60 | 244 | 0.0 | 3.5 | 0.00 | 0.00 | 0.00 | 72 | 1011.0 |
| 20260505054527 | 60 | 242 | 0.9 | 3.5 | 0.00 | 0.00 | 0.00 | 72 | 1010.8 |
| 20260505053111 | 60 | 227 | 0.9 | 3.5 | 0.00 | 0.00 | 0.00 | 71 | 1010.8 |
| 20260505051529 | 60 | 225 | 0.9 | 3.5 | 0.00 | 0.00 | 0.00 | 71 | 1010.8 |
| 20260505041506 | 60 | 206 | 1.7 | 4.3 | 0.00 | 0.00 | 0.00 | 71 | 1011.0 |
| 20260505040002 | 60 | 208 | 0.9 | 2.6 | 0.00 | 0.00 | 0.00 | 71 | 1010.7 |
| 20260505034524 | 60 | 207 | 0.9 | 3.5 | 0.00 | 0.00 | 0.00 | 71 | 1010.6 |
| 20260505033106 | 60 | 207 | 0.9 | 4.3 | 0.00 | 0.00 | 0.00 | 70 | 1010.6 |
| 20260505031510 | 60 | 207 | 1.7 | 4.3 | 0.00 | 0.00 | 0.00 | 69 | 1010.8 |
| 20260505030010 | 61 | 207 | 0.9 | 2.6 | 0.00 | 0.00 | 0.00 | 69 | 1010.9 |
| 20260505024512 | 61 | 206 | 0.9 | 3.5 | 0.00 | 0.00 | 0.00 | 68 | 1010.8 |
| 20260505023026 | 61 | 205 | 0.9 | 2.6 | 0.00 | 0.00 | 0.00 | 68 | 1011.1 |
| 20260505021525 | 62 | 205 | 0.9 | 3.5 | 0.00 | 0.00 | 0.00 | 67 | 1011.1 |
| 20260505020029 | 62 | 205 | 0.9 | 1.7 | 0.00 | 0.00 | 0.00 | 67 | 1011.3 |
| 20260505014557 | 63 | 205 | 0.9 | 3.5 | 0.00 | 0.00 | 0.00 | 66 | 1011.1 |
| 20260505013024 | 64 | 205 | 0.9 | 4.3 | 0.00 | 0.00 | 0.00 | 65 | 1011.1 |
| 20260505011555 | 64 | 205 | 0.9 | 3.5 | 0.00 | 0.00 | 0.00 | 64 | 1010.9 |
| 20260505010110 | 64 | 205 | 0.9 | 1.7 | 0.00 | 0.00 | 0.00 | 64 | 1010.8 |
| 20260505004608 | 64 | 205 | 0.0 | 1.7 | 0.00 | 0.00 | 0.00 | 64 | 1010.7 |
| 20260505003026 | 64 | 205 | 0.9 | 3.5 | 0.00 | 0.00 | 0.00 | 63 | 1010.6 |
| 20260505001609 | 65 | 205 | 0.0 | 1.7 | 0.00 | 0.00 | 0.00 | 62 | 1010.6 |
| 20260505000012 | 66 | 294 | 0.0 | 3.5 | 0.00 | 0.00 | 0.00 | 61 | 1010.4 |
| 20260504234522 | 67 | 220 | 0.9 | 4.3 | 0.00 | 0.00 | 0.00 | 59 | 1010.5 |
| 20260504233006 | 67 | 194 | 0.9 | 7.8 | 0.00 | 0.00 | 0.00 | 59 | 1010.2 |
| 20260504231524 | 67 | 212 | 0.9 | 4.3 | 0.00 | 0.00 | 0.00 | 59 | 1010.2 |
| 20260504230059 | 68 | 232 | 0.9 | 5.2 | 0.00 | 0.00 | 0.00 | 59 | 1010.0 |
| 20260504224507 | 68 | 219 | 1.7 | 5.2 | 0.00 | 0.00 | 0.00 | 59 | 1010.0 |
| 20260504223142 | 68 | 239 | 0.9 | 5.2 | 0.00 | 0.00 | 0.00 | 59 | 1010.0 |
| 20260504221603 | 69 | 202 | 2.6 | 6.1 | 0.00 | 0.00 | 0.00 | 58 | 1010.2 |
| 20260504220002 | 70 | 212 | 1.7 | 5.2 | 0.00 | 0.00 | 0.00 | 57 | 1010.1 |
| 20260504214509 | 70 | 223 | 0.9 | 4.3 | 0.00 | 0.00 | 0.00 | 54 | 1010.1 |
| 20260504213057 | 71 | 252 | 1.7 | 5.2 | 0.00 | 0.00 | 0.00 | 54 | 1010.2 |
| 20260504211508 | 70 | 190 | 1.7 | 5.2 | 0.00 | 0.00 | 0.00 | 54 | 1010.3 |
| 20260504210008 | 71 | 267 | 1.7 | 6.1 | 0.00 | 0.00 | 0.00 | 54 | 1010.3 |
| 20260504204525 | 71 | 247 | 2.6 | 6.1 | 0.00 | 0.00 | 0.00 | 53 | 1010.5 |
| 20260504203004 | 71 | 247 | 1.7 | 5.2 | 0.00 | 0.00 | 0.00 | 53 | 1010.7 |
| 20260504201515 | 70 | 217 | 0.9 | 7.0 | 0.00 | 0.00 | 0.00 | 54 | 1010.8 |
| 20260504200025 | 70 | 213 | 2.6 | 6.1 | 0.00 | 0.00 | 0.00 | 54 | 1010.7 |
| 20260504194613 | 70 | 225 | 0.9 | 5.2 | 0.00 | 0.00 | 0.00 | 53 | 1010.9 |
| 20260504193102 | 70 | 252 | 1.7 | 7.0 | 0.00 | 0.00 | 0.00 | 54 | 1011.0 |
| 20260504191609 | 70 | 234 | 2.6 | 6.1 | 0.00 | 0.00 | 0.00 | 55 | 1011.0 |
| 20260504190130 | 69 | 165 | 0.9 | 6.1 | 0.00 | 0.00 | 0.00 | 55 | 1011.2 |
| 20260504184604 | 69 | 203 | 2.6 | 7.8 | 0.00 | 0.00 | 0.00 | 54 | 1011.6 |